Time,TemperatureF,DewpointF,PressureIn,WindDirection,WindDirectionDegrees,WindSpeedMPH,WindSpeedGustMPH,Humidity,HourlyPrecipIn,Conditions,Clouds,dailyrainin,SoftwareType,DateUTC
2013-05-21 00:12:00,43.0,-99.9,-100.00,WNW,288,4.0,6.0,-999,-99.99,,,-99.99,,2013-05-21 05:12:00,
2013-05-21 00:22:00,43.0,-99.9,-100.00,WNW,288,4.0,6.0,-999,-99.99,,,-99.99,,2013-05-21 05:22:00,
2013-05-21 00:32:00,43.0,-99.9,-100.00,WNW,288,4.0,6.0,-999,-99.99,,,-99.99,,2013-05-21 05:32:00,
2013-05-21 00:40:00,42.0,-99.9,-100.00,West,269,2.0,5.0,-999,-99.99,,,-99.99,,2013-05-21 05:40:00,
2013-05-21 01:12:00,42.0,-99.9,-100.00,West,269,2.0,5.0,-999,-99.99,,,-99.99,,2013-05-21 06:12:00,
2013-05-21 01:22:00,42.0,-99.9,-100.00,West,269,2.0,5.0,-999,-99.99,,,-99.99,,2013-05-21 06:22:00,
2013-05-21 01:32:00,42.0,-99.9,-100.00,West,269,2.0,5.0,-999,-99.99,,,-99.99,,2013-05-21 06:32:00,
2013-05-21 01:40:00,42.0,-99.9,-100.00,WNW,294,4.0,6.0,-999,-99.99,,,-99.99,,2013-05-21 06:40:00,
2013-05-21 02:11:00,42.0,-99.9,-100.00,WNW,294,4.0,6.0,-999,-99.99,,,-99.99,,2013-05-21 07:11:00,
2013-05-21 02:22:00,42.0,-99.9,-100.00,WNW,294,4.0,6.0,-999,-99.99,,,-99.99,,2013-05-21 07:22:00,
2013-05-21 02:32:00,42.0,-99.9,-100.00,WNW,294,4.0,6.0,-999,-99.99,,,-99.99,,2013-05-21 07:32:00,
2013-05-21 02:40:00,41.0,-99.9,-100.00,NW,304,3.0,6.0,-999,-99.99,,,-99.99,,2013-05-21 07:40:00,
2013-05-21 03:11:00,41.0,-99.9,-100.00,NW,304,3.0,6.0,-999,-99.99,,,-99.99,,2013-05-21 08:11:00,
2013-05-21 03:21:00,41.0,-99.9,-100.00,NW,304,3.0,6.0,-999,-99.99,,,-99.99,,2013-05-21 08:21:00,
2013-05-21 03:31:00,41.0,-99.9,-100.00,NW,304,3.0,6.0,-999,-99.99,,,-99.99,,2013-05-21 08:31:00,
2013-05-21 03:40:00,41.0,-99.9,-100.00,NW,308,4.0,5.0,-999,-99.99,,,-99.99,,2013-05-21 08:40:00,
2013-05-21 04:11:00,41.0,-99.9,-100.00,NW,308,4.0,5.0,-999,-99.99,,,-99.99,,2013-05-21 09:11:00,
2013-05-21 04:22:00,41.0,-99.9,-100.00,NW,308,4.0,5.0,-999,-99.99,,,-99.99,,2013-05-21 09:22:00,
2013-05-21 04:33:00,41.0,-99.9,-100.00,NW,308,4.0,5.0,-999,-99.99,,,-99.99,,2013-05-21 09:33:00,
2013-05-21 04:40:00,42.0,-99.9,-100.00,North,5,0.0,5.0,-999,-99.99,,,-99.99,,2013-05-21 09:40:00,
2013-05-21 05:12:00,42.0,-99.9,-100.00,North,5,0.0,5.0,-999,-99.99,,,-99.99,,2013-05-21 10:12:00,
2013-05-21 05:22:00,42.0,-99.9,-100.00,North,5,0.0,5.0,-999,-99.99,,,-99.99,,2013-05-21 10:22:00,
2013-05-21 05:33:00,42.0,-99.9,-100.00,North,5,0.0,5.0,-999,-99.99,,,-99.99,,2013-05-21 10:33:00,
2013-05-21 05:53:00,41.0,-99.9,-100.00,NNE,32,10.0,14.0,-999,-99.99,,,-99.99,,2013-05-21 10:53:00,
2013-05-21 06:03:00,41.0,-99.9,-100.00,NNE,32,10.0,14.0,-999,-99.99,,,-99.99,,2013-05-21 11:03:00,
2013-05-21 06:12:00,41.0,-99.9,-100.00,North,11,11.0,14.0,-999,-99.99,,,-99.99,,2013-05-21 11:12:00,
2013-05-21 06:22:00,41.0,-99.9,-100.00,NNE,32,10.0,14.0,-999,-99.99,,,-99.99,,2013-05-21 11:22:00,
2013-05-21 06:32:00,41.0,-99.9,-100.00,NNE,32,10.0,14.0,-999,-99.99,,,-99.99,,2013-05-21 11:32:00,
2013-05-21 06:42:00,41.0,-99.9,-100.00,NNE,32,10.0,14.0,-999,-99.99,,,-99.99,,2013-05-21 11:42:00,
2013-05-21 06:52:00,41.0,-99.9,-100.00,NNE,32,10.0,14.0,-999,-99.99,,,-99.99,,2013-05-21 11:52:00,
2013-05-21 07:02:00,41.0,-99.9,-100.00,NNW,341,7.0,17.0,-999,-99.99,,,-99.99,,2013-05-21 12:02:00,
2013-05-21 07:11:00,41.0,-99.9,-100.00,NNW,341,7.0,10.0,-999,-99.99,,,-99.99,,2013-05-21 12:11:00,
2013-05-21 07:22:00,41.0,-99.9,-100.00,NNW,341,7.0,17.0,-999,-99.99,,,-99.99,,2013-05-21 12:22:00,
2013-05-21 07:32:00,41.0,-99.9,-100.00,NNW,341,7.0,17.0,-999,-99.99,,,-99.99,,2013-05-21 12:32:00,
2013-05-21 07:40:00,41.0,-99.9,-100.00,North,8,8.0,10.0,-999,-99.99,,,-99.99,,2013-05-21 12:40:00,
2013-05-21 07:42:00,41.0,-99.9,-100.00,NNW,341,7.0,17.0,-999,-99.99,,,-99.99,,2013-05-21 12:42:00,
2013-05-21 07:52:00,41.0,-99.9,-100.00,NNW,341,7.0,17.0,-999,-99.99,,,-99.99,,2013-05-21 12:52:00,
2013-05-21 08:01:00,41.0,-99.9,-100.00,NNW,341,7.0,17.0,-999,-99.99,,,-99.99,,2013-05-21 13:01:00,
2013-05-21 08:12:00,41.0,-99.9,-100.00,North,8,8.0,10.0,-999,-99.99,,,-99.99,,2013-05-21 13:12:00,
2013-05-21 08:22:00,41.0,-99.9,-100.00,North,8,8.0,10.0,-999,-99.99,,,-99.99,,2013-05-21 13:22:00,
2013-05-21 08:32:00,41.0,-99.9,-100.00,North,8,8.0,10.0,-999,-99.99,,,-99.99,,2013-05-21 13:32:00,
2013-05-21 08:40:00,41.0,-99.9,-100.00,North,359,10.0,14.0,-999,-99.99,,,-99.99,,2013-05-21 13:40:00,
2013-05-21 09:11:00,41.0,-99.9,-100.00,North,359,10.0,14.0,-999,-99.99,,,-99.99,,2013-05-21 14:11:00,
2013-05-21 09:21:00,41.0,-99.9,-100.00,North,359,10.0,14.0,-999,-99.99,,,-99.99,,2013-05-21 14:21:00,
2013-05-21 09:32:00,41.0,-99.9,-100.00,North,359,10.0,14.0,-999,-99.99,,,-99.99,,2013-05-21 14:32:00,
2013-05-21 09:40:00,41.0,-99.9,-100.00,NW,315,7.0,8.0,-999,-99.99,,,-99.99,,2013-05-21 14:40:00,
2013-05-21 10:11:00,41.0,-99.9,-100.00,NW,315,7.0,8.0,-999,-99.99,,,-99.99,,2013-05-21 15:11:00,
2013-05-21 10:21:00,41.0,-99.9,-100.00,NW,315,7.0,8.0,-999,-99.99,,,-99.99,,2013-05-21 15:21:00,
2013-05-21 10:33:00,41.0,-99.9,-100.00,NW,315,7.0,8.0,-999,-99.99,,,-99.99,,2013-05-21 15:33:00,
2013-05-21 10:40:00,41.0,-99.9,-100.00,NW,304,7.0,9.0,-999,-99.99,,,-99.99,,2013-05-21 15:40:00,
2013-05-21 11:13:00,41.0,-99.9,-100.00,NW,304,7.0,9.0,-999,-99.99,,,-99.99,,2013-05-21 16:13:00,
2013-05-21 11:23:00,41.0,-99.9,-100.00,NW,304,7.0,9.0,-999,-99.99,,,-99.99,,2013-05-21 16:23:00,
2013-05-21 11:32:00,41.0,-99.9,-100.00,NW,304,7.0,9.0,-999,-99.99,,,-99.99,,2013-05-21 16:32:00,
2013-05-21 11:40:00,42.0,-99.9,-100.00,NW,304,10.0,13.0,-999,-99.99,,,-99.99,,2013-05-21 16:40:00,
2013-05-21 12:12:00,42.0,-99.9,-100.00,NW,304,10.0,13.0,-999,-99.99,,,-99.99,,2013-05-21 17:12:00,
2013-05-21 12:23:00,42.0,-99.9,-100.00,NW,304,10.0,13.0,-999,-99.99,,,-99.99,,2013-05-21 17:23:00,
2013-05-21 12:33:00,42.0,-99.9,-100.00,NW,304,10.0,13.0,-999,-99.99,,,-99.99,,2013-05-21 17:33:00,
2013-05-21 12:40:00,44.0,-99.9,-100.00,WNW,294,8.0,12.0,-999,-99.99,,,-99.99,,2013-05-21 17:40:00,
2013-05-21 13:13:00,44.0,-99.9,-100.00,WNW,294,8.0,12.0,-999,-99.99,,,-99.99,,2013-05-21 18:13:00,
2013-05-21 13:22:00,44.0,-99.9,-100.00,WNW,294,8.0,12.0,-999,-99.99,,,-99.99,,2013-05-21 18:22:00,
2013-05-21 13:32:00,44.0,-99.9,-100.00,WNW,294,8.0,12.0,-999,-99.99,,,-99.99,,2013-05-21 18:32:00,
2013-05-21 13:40:00,45.0,-99.9,-100.00,NW,305,11.0,14.0,-999,-99.99,,,-99.99,,2013-05-21 18:40:00,
2013-05-21 14:12:00,45.0,-99.9,-100.00,NW,305,11.0,14.0,-999,-99.99,,,-99.99,,2013-05-21 19:12:00,
2013-05-21 14:22:00,45.0,-99.9,-100.00,NW,305,11.0,14.0,-999,-99.99,,,-99.99,,2013-05-21 19:22:00,
2013-05-21 14:32:00,45.0,-99.9,-100.00,NW,305,11.0,14.0,-999,-99.99,,,-99.99,,2013-05-21 19:32:00,
2013-05-21 14:40:00,44.0,-99.9,-100.00,NW,310,12.0,18.0,-999,-99.99,,,-99.99,,2013-05-21 19:40:00,
2013-05-21 15:11:00,44.0,-99.9,-100.00,NW,310,12.0,18.0,-999,-99.99,,,-99.99,,2013-05-21 20:11:00,
2013-05-21 15:22:00,44.0,-99.9,-100.00,NW,310,12.0,18.0,-999,-99.99,,,-99.99,,2013-05-21 20:22:00,
2013-05-21 15:33:00,44.0,-99.9,-100.00,NW,310,12.0,18.0,-999,-99.99,,,-99.99,,2013-05-21 20:33:00,
2013-05-21 15:40:00,44.0,-99.9,-100.00,NW,312,13.0,16.0,-999,-99.99,,,-99.99,,2013-05-21 20:40:00,
2013-05-21 16:11:00,44.0,-99.9,-100.00,NW,312,13.0,16.0,-999,-99.99,,,-99.99,,2013-05-21 21:11:00,
2013-05-21 16:22:00,44.0,-99.9,-100.00,NW,312,13.0,16.0,-999,-99.99,,,-99.99,,2013-05-21 21:22:00,
2013-05-21 16:33:00,44.0,-99.9,-100.00,NW,312,13.0,16.0,-999,-99.99,,,-99.99,,2013-05-21 21:33:00,
2013-05-21 16:40:00,44.0,-99.9,-100.00,NW,308,10.0,12.0,-999,-99.99,,,-99.99,,2013-05-21 21:40:00,
2013-05-21 17:13:00,44.0,-99.9,-100.00,NW,308,10.0,12.0,-999,-99.99,,,-99.99,,2013-05-21 22:13:00,
2013-05-21 17:23:00,44.0,-99.9,-100.00,NW,308,10.0,12.0,-999,-99.99,,,-99.99,,2013-05-21 22:23:00,
2013-05-21 17:34:00,44.0,-99.9,-100.00,NW,308,10.0,12.0,-999,-99.99,,,-99.99,,2013-05-21 22:34:00,
2013-05-21 17:40:00,42.0,-99.9,-100.00,WNW,296,8.0,11.0,-999,-99.99,,,-99.99,,2013-05-21 22:40:00,
2013-05-21 18:12:00,42.0,-99.9,-100.00,WNW,296,8.0,11.0,-999,-99.99,,,-99.99,,2013-05-21 23:12:00,
2013-05-21 18:22:00,42.0,-99.9,-100.00,WNW,296,8.0,11.0,-999,-99.99,,,-99.99,,2013-05-21 23:22:00,
2013-05-21 18:32:00,42.0,-99.9,-100.00,WNW,296,8.0,11.0,-999,-99.99,,,-99.99,,2013-05-21 23:32:00,
2013-05-21 18:40:00,43.0,-99.9,-100.00,West,266,4.0,8.0,-999,-99.99,,,-99.99,,2013-05-21 23:40:00,
2013-05-21 19:11:00,43.0,-99.9,-100.00,West,266,4.0,8.0,-999,-99.99,,,-99.99,,2013-05-22 00:11:00,
2013-05-21 19:22:00,43.0,-99.9,-100.00,West,266,4.0,8.0,-999,-99.99,,,-99.99,,2013-05-22 00:22:00,
2013-05-21 19:32:00,43.0,-99.9,-100.00,West,266,4.0,8.0,-999,-99.99,,,-99.99,,2013-05-22 00:32:00,
2013-05-21 19:40:00,41.0,-99.9,-100.00,NW,325,3.0,6.0,-999,-99.99,,,-99.99,,2013-05-22 00:40:00,
2013-05-21 20:11:00,41.0,-99.9,-100.00,NW,325,3.0,6.0,-999,-99.99,,,-99.99,,2013-05-22 01:11:00,
2013-05-21 20:22:00,41.0,-99.9,-100.00,NW,325,3.0,6.0,-999,-99.99,,,-99.99,,2013-05-22 01:22:00,
2013-05-21 20:32:00,41.0,-99.9,-100.00,NW,325,3.0,6.0,-999,-99.99,,,-99.99,,2013-05-22 01:32:00,
2013-05-21 20:40:00,41.0,-99.9,-100.00,West,279,2.0,4.0,-999,-99.99,,,-99.99,,2013-05-22 01:40:00,
2013-05-21 21:12:00,41.0,-99.9,-100.00,West,279,2.0,4.0,-999,-99.99,,,-99.99,,2013-05-22 02:12:00,
2013-05-21 21:22:00,41.0,-99.9,-100.00,West,279,2.0,4.0,-999,-99.99,,,-99.99,,2013-05-22 02:22:00,
2013-05-21 21:32:00,41.0,-99.9,-100.00,West,279,2.0,4.0,-999,-99.99,,,-99.99,,2013-05-22 02:32:00,
2013-05-21 21:40:00,42.0,-99.9,-100.00,NE,45,12.0,15.0,-999,-99.99,,,-99.99,,2013-05-22 02:40:00,
2013-05-21 22:11:00,42.0,-99.9,-100.00,NE,45,12.0,15.0,-999,-99.99,,,-99.99,,2013-05-22 03:11:00,
2013-05-21 22:22:00,42.0,-99.9,-100.00,NE,45,12.0,15.0,-999,-99.99,,,-99.99,,2013-05-22 03:22:00,
2013-05-21 22:33:00,42.0,-99.9,-100.00,NE,45,12.0,15.0,-999,-99.99,,,-99.99,,2013-05-22 03:33:00,
2013-05-21 22:40:00,42.0,-99.9,-100.00,NNE,33,15.0,17.0,-999,-99.99,,,-99.99,,2013-05-22 03:40:00,
2013-05-21 23:13:00,42.0,-99.9,-100.00,NNE,33,15.0,17.0,-999,-99.99,,,-99.99,,2013-05-22 04:13:00,
2013-05-21 23:23:00,42.0,-99.9,-100.00,NNE,33,15.0,17.0,-999,-99.99,,,-99.99,,2013-05-22 04:23:00,
2013-05-21 23:33:00,42.0,-99.9,-100.00,NNE,33,15.0,17.0,-999,-99.99,,,-99.99,,2013-05-22 04:33:00,
2013-05-21 23:40:00,43.0,-99.9,-100.00,NE,54,10.0,14.0,-999,-99.99,,,-99.99,,2013-05-22 04:40:00,